Vorticity
7 5 3 1 3 4 6 8 9 6 7 7 1 22 9 6 6 8 5 8 6 -3
5 8 4 3 3 1 4 5 7 7 6 5 1 -0 2 11 6 3 13 3 6 9
9 7 9 5 3 3 3 5 4 6 7 7 6 2 3 8 7 5 5 14 16 33
11 13 11 9 5 5 3 5 6 4 3 1 10 21 6 12 -2 7 4 -1 20 2
25 17 9 12 12 9 5 2 6 7 5 8 4 1 -6 15 -20 -4 5 5 -8 15
31 30 24 17 7 9 11 8 4 5 7 4 5 4 4 -33 77 -6 2 7 6 -4
22 26 30 25 23 14 6 10 10 5 5 10 5 1 -2 -23 -42 6 7 10 13 15
29 29 25 28 28 22 21 6 10 8 5 5 9 9 13 3 9 -1 32 12 10 11
27 32 32 27 30 32 20 22 15 9 8 4 6 3 9 20 7 -22 30 -5 19 8
22 31 38 38 33 30 37 21 19 18 6 7 5 8 5 12 -4 -27 18 31 19 0
22 13 24 35 37 34 29 43 22 15 16 7 9 12 -4 1 23 17 18 18 7 13
22 16 16 18 38 43 35 32 43 26 15 13 10 7 8 20 -18 -16 7 -14 18 14
21 7 19 19 13 24 43 38 36 42 35 12 14 8 8 9 7 -9 8 10 -16 32
13 14 12 11 13 17 19 40 35 32 44 33 11 6 7 12 14 -31 18 -4 15 16
Height
5594 5602 5612 5622 5632 5641 5651 5661 5668 5675 5683 5691 5697 5706 5709 5714 5722 5729 5735 5741 5745 5751
5568 5577 5586 5596 5607 5619 5629 5639 5648 5656 5666 5675 5682 5689 5694 5700 5707 5714 5721 5728 5732 5736
5539 5549 5559 5570 5581 5593 5605 5615 5624 5634 5646 5655 5663 5670 5677 5684 5691 5699 5706 5712 5715 5721
5506 5518 5529 5542 5554 5565 5578 5590 5602 5612 5624 5636 5644 5648 5663 5668 5675 5683 5691 5697 5704 5709
5469 5482 5498 5511 5525 5538 5551 5565 5577 5589 5602 5615 5625 5635 5643 5653 5661 5669 5675 5681 5690 5691
5434 5445 5460 5478 5493 5508 5523 5538 5552 5564 5579 5593 5605 5617 5627 5637 5640 5650 5659 5667 5675 5684
5406 5414 5425 5440 5457 5475 5492 5509 5526 5540 5555 5569 5582 5594 5607 5617 5624 5635 5645 5651 5659 5667
5381 5387 5396 5407 5420 5437 5457 5478 5497 5512 5529 5544 5556 5571 5586 5600 5611 5621 5626 5634 5643 5651
5362 5365 5371 5380 5391 5404 5420 5441 5462 5485 5501 5518 5534 5553 5567 5582 5593 5600 5604 5614 5625 5635
5348 5350 5352 5357 5366 5377 5390 5405 5428 5454 5473 5493 5513 5531 5545 5561 5574 5582 5590 5599 5610 5620
5338 5338 5339 5341 5345 5355 5365 5378 5396 5419 5443 5467 5489 5510 5524 5544 5558 5566 5574 5582 5594 5605
5330 5331 5331 5331 5333 5338 5346 5358 5373 5391 5412 5436 5464 5486 5503 5524 5537 5544 5559 5566 5575 5586
5324 5324 5324 5324 5326 5328 5333 5343 5355 5370 5386 5410 5436 5457 5479 5500 5520 5533 5532 5549 5558 5570
5319 5319 5318 5318 5320 5322 5325 5331 5341 5354 5369 5388 5409 5432 5456 5478 5499 5513 5524 5533 5544 5557